{"data":{"norad_id":48391,"epoch":"2026-09-19T23:23:11.925312Z","epoch_age_seconds":79132,"freshness":"FRESH","line1":"1 48391U 21038AQ  26262.97444358 -.00000275  00000+0  29035-5 0  9999","line2":"2 48391  53.1599 148.8433 0001238  82.8341 277.2801 15.31710334298420","mean_motion":15.31710334,"eccentricity":0.0001238,"inclination_deg":53.1599,"raan_deg":148.8433,"arg_perigee_deg":82.8341,"mean_anomaly_deg":277.2801,"bstar":2.9035e-6,"rev_number":29842,"period_min":94.012553681707,"perigee_km":469.86130312422,"apogee_km":471.55707744094,"semimajor_km":6848.8461902826,"source":"CELESTRAK","updated_at":"2026-09-20T09:00:38.945679Z"}}